Location: Bernay
(48.6766°N, 2.9386°E)
Time: 07:59:40
(UTC+00:00)

UNK - Pass Details

Date: 12 January 2026
Orbit: 654 x 673 km, 98.4° (Epoch: 15 February)

Event Time Altitude Azimuth Distance (km) Brightness Sun altitude
Rises 17:40:56 0° 10° (N) 2,993 6.8 -13.5°
Reaches altitude 10° 17:43:12 10° 6° (N) 2,076 6.0 -13.9°
Maximum altitude 17:47:36 55° 290° (WNW) 792 4.4 -14.6°
Drops below altitude 10° 17:51:59 10° 213° (SSW) 2,060 6.9 -15.3°
Sets 17:54:13 0° 209° (SSW) 2,968 7.7 -15.6°
